Swift Current Airport, Saskatchewan

4:37 AM CST on April 26, 2017 (GMT -0600)
Swift Current

Weather History for CYYN - August, 2013

Change the Weather History Date:

Sunday, August 18, 2013

  Actual Average Record
Temperature  
Mean Temperature 72 °F -  
Max Temperature 86 °F 69 °F 91 °F (2001)
Min Temperature 57 °F 45 °F 37 °F (2004)
Cooling Degree Days 6    
Growing Degree Days 22 (Base 50)    
Moisture  
Dew Point 51 °F    
Average Humidity 59    
Maximum Humidity 94    
Minimum Humidity 22    
Precipitation  
Precipitation 0.00 in 0.05 in - ()
Sea Level Pressure  
Sea Level Pressure 29.84 in    
Wind  
Wind Speed 9 mph ()    
Max Wind Speed 21 mph    
Max Gust Speed 26 mph    
Visibility 7.5 miles    
Events      
Averages and records for this station are not official NWS values.
T = Trace of Precipitation, MM = Missing Value Source: Averaged Metar Reports

Daily Weather History Graph

Daily Weather History Graph

Search for Another Location

Airport or City:

Trip Planner

Search our weather history database for the weather conditions in past years. The results will help you decide how hot, cold, wet, or windy it might be!

Date:

Astronomy

Aug. 18, 2013 Rise Set
Actual Time 6:04 AM CST 8:23 PM CST
Civil Twilight 5:28 AM CST 8:58 PM CST
Nautical Twilight 4:43 AM CST 9:43 PM CST
Astronomical Twilight 3:51 AM CST 10:34 PM CST
Moon 6:37 PM CST (8/18) 3:08 AM CST (8/18)
Length of Visible Light 15h 29m
Length of Day
14h 18m
Waxing Gibbous, 92% of the Moon is Illuminated
Aug 18
Waxing Gibbous
Aug 20
Full
Aug 28
Last Quarter
Sep 5
New
Sep 12
First Quarter

Hourly Weather History & Observations

Time (CST) Temp. Dew Point Humidity Pressure Visibility Wind Dir Wind Speed Gust Speed Precip Events Conditions
12:00 AM 59.0 °F 57.2 °F 94% 29.87 in 9.0 mi SE 9.2 mph - N/A   Clear
1:00 AM 57.2 °F 55.4 °F 94% 29.88 in 9.0 mi SSE 10.4 mph - N/A   Clear
2:00 AM 59.0 °F 53.6 °F 82% 29.86 in 9.0 mi South 9.2 mph - N/A   Clear
3:00 AM 60.8 °F 53.6 °F 77% 29.84 in 9.0 mi SSW 11.5 mph - N/A   Clear
4:00 AM 60.8 °F 53.6 °F 77% 29.84 in 9.0 mi SSW 11.5 mph - N/A   Clear
5:00 AM 62.6 °F 53.6 °F 72% 29.83 in 9.0 mi SSW 10.4 mph - N/A   Clear
6:00 AM 59.0 °F 53.6 °F 82% 29.85 in 9.0 mi West 10.4 mph - N/A   Mostly Cloudy
6:29 AM 57.2 °F 53.6 °F 88% 29.86 in 5.0 mi WSW 6.9 mph - N/A   Haze
6:39 AM 59.0 °F 53.6 °F 82% 29.85 in 6.0 mi West 5.8 mph - N/A   Haze
7:00 AM 59.0 °F 53.6 °F 82% 29.86 in 9.0 mi Variable 3.5 mph - N/A   Scattered Clouds
7:32 AM 62.6 °F 53.6 °F 72% 29.86 in 5.0 mi Variable 2.3 mph - N/A   Haze
7:37 AM 62.6 °F 55.4 °F 77% 29.85 in 2.5 mi South 4.6 mph - N/A   Haze
7:39 AM 62.6 °F 55.4 °F 77% 29.85 in 1.8 mi South 3.5 mph - N/A   Haze
7:51 AM 64.4 °F 55.4 °F 73% 29.86 in 2.2 mi SW 6.9 mph - N/A   Haze
7:57 AM 64.4 °F 55.4 °F 73% 29.85 in 3.0 mi SW 6.9 mph - N/A   Haze
8:00 AM 66.2 °F 51.8 °F 60% 29.86 in 4.0 mi WSW 9.2 mph - N/A   Haze
8:05 AM 66.2 °F 51.8 °F 60% 29.86 in 6.0 mi WSW 10.4 mph - N/A   Haze
9:00 AM 69.8 °F 53.6 °F 56% 29.86 in 9.0 mi West 15.0 mph - N/A   Clear
10:00 AM 71.6 °F 51.8 °F 50% 29.86 in 9.0 mi West 16.1 mph - N/A   Mostly Cloudy
11:00 AM 78.8 °F 48.2 °F 34% 29.85 in 9.0 mi West 15.0 mph 21.9 mph N/A   Clear
12:00 PM 82.4 °F 46.4 °F 28% 29.85 in 9.0 mi WNW 16.1 mph 24.2 mph N/A   Clear
1:00 PM 84.2 °F 46.4 °F 27% 29.84 in 9.0 mi West 15.0 mph 24.2 mph N/A   Clear
2:00 PM 86.0 °F 44.6 °F 23% 29.83 in 9.0 mi West 20.7 mph 26.5 mph N/A   Clear
3:00 PM 86.0 °F 44.6 °F 23% 29.82 in 9.0 mi West 17.3 mph 26.5 mph N/A   Clear
4:00 PM 86.0 °F 42.8 °F 22% 29.81 in 9.0 mi WSW 16.1 mph 25.3 mph N/A   Clear
5:00 PM 84.2 °F 42.8 °F 23% 29.81 in 9.0 mi West 17.3 mph 24.2 mph N/A   Clear
6:00 PM 84.2 °F 42.8 °F 23% 29.80 in 9.0 mi West 13.8 mph 20.7 mph N/A   Clear
7:00 PM 82.4 °F 42.8 °F 25% 29.80 in 9.0 mi WSW 12.7 mph - N/A   Clear
8:00 PM 73.4 °F 46.4 °F 38% 29.80 in 9.0 mi SW 9.2 mph - N/A   Clear
9:00 PM 64.4 °F 50.0 °F 59% 29.82 in 9.0 mi SSW 9.2 mph - N/A   Clear
9:29 PM 62.6 °F 50.0 °F 63% 29.82 in 5.0 mi SW 11.5 mph - N/A   Haze
9:36 PM 60.8 °F 50.0 °F 68% 29.82 in 7.0 mi SSW 11.5 mph - N/A   Clear
10:00 PM 60.8 °F 50.0 °F 68% 29.82 in 9.0 mi SW 11.5 mph - N/A   Clear
11:00 PM 60.8 °F 50.0 °F 68% 29.81 in 9.0 mi SSW 11.5 mph - N/A   Clear